Preston, Minnesota, United States (55965)
Lat: 43.67N, Lon: 92.08W
Wx Zone: MNZ095
Local Info
Past Weather Observations for Today

NOTE: This archive is for the closest National Weather Service station to Preston. Information may differ from the station used for current weather conditions.

Click here for Long-term Archive

Time Weather Temperature Dewpoint Humidity Pressure Winds Precip Visibility
20:55
Overcast
Fog
43°F / 6°C 43°F / 6°C 100% 29.62 in
(1003 mb)
S 18.4 mph
(S 30 kph)
- 1/2SM
20:35
Overcast
Fog And Mist
43°F / 6°C 43°F / 6°C 100% 29.65 in
(1004 mb)
S 15 mph
(S 24 kph)
- 2SM
20:15
Overcast
Fog And Mist
41°F / 5°C 39°F / 4°C 93% 29.65 in
(1004 mb)
S 11.5 mph
(S 19 kph)
- 3SM
19:55
Overcast
Fog And Mist
39°F / 4°C 37°F / 3°C 93% 29.65 in
(1004 mb)
S 10.4 mph
(S 17 kph)
- 2SM
19:35
Overcast
Fog And Mist
37°F / 3°C 37°F / 3°C 100% 29.65 in
(1004 mb)
SSE 9.2 mph
(SSE 15 kph)
- 3/4SM
19:15
Overcast
Fog
37°F / 3°C 37°F / 3°C 100% 29.65 in
(1004 mb)
S 8.1 mph
(S 13 kph)
- 1/4SM
18:55
Overcast
Fog
37°F / 3°C 37°F / 3°C 100% 29.65 in
(1004 mb)
SSE 9.2 mph
(SSE 15 kph)
- 1/4SM
18:35
Overcast
Fog
37°F / 3°C 37°F / 3°C 100% 29.68 in
(1005 mb)
SSE 9.2 mph
(SSE 15 kph)
- 1/4SM
18:15
Overcast
Fog
37°F / 3°C 37°F / 3°C 100% 29.68 in
(1005 mb)
SSE 9.2 mph
(SSE 15 kph)
- 1/4SM
17:55
Overcast
Fog
37°F / 3°C 37°F / 3°C 100% 29.68 in
(1005 mb)
SSE 8.1 mph
(SSE 13 kph)
- 1/4SM
17:35
Overcast
Fog
37°F / 3°C 37°F / 3°C 100% 29.68 in
(1005 mb)
S 6.9 mph
(S 11 kph)
- 1/4SM
17:15
Overcast
Fog
37°F / 3°C 37°F / 3°C 100% 29.68 in
(1005 mb)
S 6.9 mph
(S 11 kph)
- 1/4SM
16:56
Overcast
Fog
37°F / 3°C 37°F / 3°C 100% 29.68 in
(1005 mb)
S 8.1 mph
(S 13 kph)
- 1/4SM
16:35
Overcast
Fog
37°F / 3°C 37°F / 3°C 100% 29.71 in
(1006 mb)
S 9.2 mph
(S 15 kph)
- 1/4SM
16:15
Overcast
Fog
37°F / 3°C 37°F / 3°C 100% 29.71 in
(1006 mb)
SSE 11.5 mph
(SSE 19 kph)
- 1/4SM
15:56
Overcast
Fog
37°F / 3°C 37°F / 3°C 100% 29.71 in
(1006 mb)
SSE 10.4 mph
(SSE 17 kph)
- 1/4SM
15:35
Overcast
Fog
37°F / 3°C 37°F / 3°C 100% 29.71 in
(1006 mb)
SSE 9.2 mph
(SSE 15 kph)
- 1/4SM
15:15
Overcast
Fog
37°F / 3°C 36°F / 2°C 93% 29.71 in
(1006 mb)
S 9.2 mph
(S 15 kph)
- 1/4SM
14:56
Overcast
Fog
37°F / 3°C 36°F / 2°C 93% 29.71 in
(1006 mb)
SSE 11.5 mph
(SSE 19 kph)
- 1/2SM
14:35
Overcast
Fog
36°F / 2°C 36°F / 2°C 100% 29.71 in
(1006 mb)
SW 11.5 mph
(SW 19 kph)
- 1/2SM
14:15
Overcast
Fog
36°F / 2°C 36°F / 2°C 100% 29.74 in
(1007 mb)
SSE 10.4 mph
(SSE 17 kph)
- 1/2SM
13:55
Overcast
Fog
36°F / 2°C 36°F / 2°C 100% 29.74 in
(1007 mb)
SSE 13.8 mph
(SSE 22 kph)
- 1/2SM
13:35
Overcast
Fog
36°F / 2°C 36°F / 2°C 100% 29.74 in
(1007 mb)
SSE 13.8 mph
(SSE 22 kph)
- 1/4SM
13:15
Overcast
Fog
36°F / 2°C 36°F / 2°C 100% 29.74 in
(1007 mb)
SW 13.8 mph
(SW 22 kph)
- 1/4SM
12:55
Overcast
Fog
36°F / 2°C 36°F / 2°C 100% 29.74 in
(1007 mb)
SW 11.5 mph
(SW 19 kph)
- 1/4SM
12:35
Overcast
Fog
36°F / 2°C 36°F / 2°C 100% 29.74 in
(1007 mb)
SSE 10.4 mph
(SSE 17 kph)
- 1/2SM
12:16
Overcast
Fog
36°F / 2°C 34°F / 1°C 93% 29.77 in
(1008 mb)
S 12.7 mph
(S 20 kph)
- 1/2SM
11:55
Overcast
Fog
36°F / 2°C 34°F / 1°C 93% 29.77 in
(1008 mb)
SSE 13.8 mph
(SSE 22 kph)
- 1/2SM
11:35
Overcast
Fog
36°F / 2°C 34°F / 1°C 93% 29.77 in
(1008 mb)
S 13.8 mph
(S 22 kph)
- 1/4SM
11:16
Overcast
Fog
34°F / 1°C 34°F / 1°C 100% 29.77 in
(1008 mb)
S 12.7 mph
(S 20 kph)
- 1/4SM
10:55
Overcast
Fog
34°F / 1°C 34°F / 1°C 100% 29.77 in
(1008 mb)
SSE 12.7 mph
(SSE 20 kph)
- M1/4SM
10:35
Overcast
Fog
34°F / 1°C 34°F / 1°C 100% 29.8 in
(1009 mb)
SSE 12.7 mph
(SSE 20 kph)
- M1/4SM
10:16
Overcast
Fog
34°F / 1°C 34°F / 1°C 100% 29.8 in
(1009 mb)
SSE 12.7 mph
(SSE 20 kph)
- M1/4SM
09:55
Overcast
Fog
34°F / 1°C 34°F / 1°C 100% 29.8 in
(1009 mb)
SSE 11.5 mph
(SSE 19 kph)
- M1/4SM
09:35
Overcast
Fog
34°F / 1°C 34°F / 1°C 100% 29.8 in
(1009 mb)
SW 13.8 mph
(SW 22 kph)
- 1/4SM
09:16
Overcast
Fog
34°F / 1°C 34°F / 1°C 100% 29.83 in
(1010 mb)
SSE 11.5 mph
(SSE 19 kph)
- M1/4SM
08:55
Overcast
Fog
34°F / 1°C 34°F / 1°C 100% 29.83 in
(1010 mb)
SW 10.4 mph
(SW 17 kph)
- M1/4SM
08:35
Overcast
Fog
34°F / 1°C 32°F / 0°C 93% 29.83 in
(1010 mb)
S 9.2 mph
(S 15 kph)
- M1/4SM
08:16
Overcast
Fog
34°F / 1°C 32°F / 0°C 93% 29.83 in
(1010 mb)
S 10.4 mph
(S 17 kph)
- M1/4SM
07:55
Overcast
Fog
34°F / 1°C 32°F / 0°C 93% 29.83 in
(1010 mb)
SSE 9.2 mph
(SSE 15 kph)
- 1/4SM
07:35
Overcast
Fog
34°F / 1°C 32°F / 0°C 93% 29.83 in
(1010 mb)
SSE 9.2 mph
(SSE 15 kph)
- 1/4SM
07:16
Overcast
Fog
34°F / 1°C 32°F / 0°C 93% 29.83 in
(1010 mb)
SSE 9.2 mph
(SSE 15 kph)
- M1/4SM
06:55
Overcast
Fog
32°F / 0°C 32°F / 0°C 100% 29.86 in
(1011 mb)
SW 10.4 mph
(SW 17 kph)
- 1/4SM
06:35
Overcast
Fog
32°F / 0°C 32°F / 0°C 100% 29.86 in
(1011 mb)
SW 9.2 mph
(SW 15 kph)
- 1/2SM
06:15
Overcast
Fog
32°F / 0°C 32°F / 0°C 100% 29.86 in
(1011 mb)
SSE 11.5 mph
(SSE 19 kph)
- 1/2SM
05:55
Overcast
Fog And Mist
32°F / 0°C 32°F / 0°C 100% 29.86 in
(1011 mb)
SW 13.8 mph
(SW 22 kph)
- 3/4SM
05:35
Overcast
Fog And Mist
32°F / 0°C 32°F / 0°C 100% 29.86 in
(1011 mb)
SW 13.8 mph
(SW 22 kph)
- 3/4SM
05:16
Overcast
Fog And Mist
32°F / 0°C 32°F / 0°C 100% 29.86 in
(1011 mb)
SSE 12.7 mph
(SSE 20 kph)
- 1SM
04:55
Overcast
Fog And Mist
32°F / 0°C 32°F / 0°C 100% 29.89 in
(1012 mb)
SSE 12.7 mph
(SSE 20 kph)
- 1 1/2SM
04:34
Overcast
Fog And Mist
32°F / 0°C 32°F / 0°C 100% 29.89 in
(1012 mb)
SSE 11.5 mph
(SSE 19 kph)
- 1 3/4SM
04:15
Overcast
Fog And Mist
32°F / 0°C 30°F / -1°C 93% 29.89 in
(1012 mb)
S 13.8 mph
(S 22 kph)
- 1 1/2SM
03:55
Overcast
Fog And Mist
32°F / 0°C 30°F / -1°C 93% 29.89 in
(1012 mb)
SSE 13.8 mph
(SSE 22 kph)
- 2SM
03:35
Overcast
Fog And Mist
32°F / 0°C 30°F / -1°C 93% 29.89 in
(1012 mb)
SSE 11.5 mph
(SSE 19 kph)
- 3SM
03:16
Overcast
Fog And Mist
32°F / 0°C 30°F / -1°C 93% 29.92 in
(1013 mb)
SSE 15 mph
(SSE 24 kph)
- 4SM
02:55
Overcast
Fog And Mist
32°F / 0°C 30°F / -1°C 93% 29.92 in
(1013 mb)
SSE 11.5 mph
(SSE 19 kph)
- 5SM
02:35
Overcast
Fog And Mist
32°F / 0°C 30°F / -1°C 93% 29.92 in
(1013 mb)
SSE 13.8 mph
(SSE 22 kph)
- 5SM
02:16
Overcast
Fog And Mist
32°F / 0°C 28°F / -2°C 87% 29.92 in
(1013 mb)
SSE 15 mph
(SSE 24 kph)
- 5SM
01:56
Overcast
Fog And Mist
32°F / 0°C 28°F / -2°C 87% 29.95 in
(1014 mb)
SW 16.1 mph
(SW 26 kph)
- 5SM
01:35
Overcast
32°F / 0°C 28°F / -2°C 87% 29.92 in
(1013 mb)
S 17.3 mph
(S 28 kph)
- 7SM
01:15
Overcast
32°F / 0°C 27°F / -3°C 80% 29.92 in
(1013 mb)
S 18.4 mph
(S 30 kph)
- 7SM
00:55
Overcast
32°F / 0°C 27°F / -3°C 80% 29.95 in
(1014 mb)
SSE 16.1 mph
(SSE 26 kph)
- 7SM
00:35
Overcast
30°F / -1°C 27°F / -3°C 86% 29.95 in
(1014 mb)
SSE 20.7 mph
(SSE 33 kph)
- 10SM
00:15
Overcast
30°F / -1°C 25°F / -4°C 80% 29.98 in
(1015 mb)
SSE 18.4 mph
(SSE 30 kph)
- 10SM
Time Weather Temperature Dewpoint Humidity Pressure Winds Precip Visibility


Weather for websites

WeatherForYou.com, LLC is not responsible for any damages or problems caused by this service. Current weather conditions are obtained from the closest station including government and personal stations which may have varying degrees of accuracy. Weather forecasts are derived from the NOAA NDFD. Like all things, this site belongs to Jesus Christ... He just trusts me to maintain it. If you have any questions or comments email webmaster@weatherforyou.com

Copyright © 2014, WeatherForYou.com LLC. All rights reserved.